Location: Unspecified
(0.0000°N, 0.0000°E)
Time: 09:48:34
(UTC+00:00)

Vanguard 3 - Visible Passes

Search period start: 30 September 2014 00:00
Search period end: 10 October 2014 00:00
Orbit: 508 x 3278 km, 33.3° (Epoch: 29 September)

Date Brightness Start Highest point End Pass type
(mag) Time Alt. Az. Time Alt. Az. Time Alt. Az.
30 Sep 10.9 18:41:18 10° WSW 18:52:38 19° SSW 19:01:41 10° SSE visible
01 Oct 10.9 19:56:00 10° SSW 19:56:34 10° SSW 19:57:07 10° SSW visible
02 Oct 11.0 18:30:19 10° WSW 18:40:55 17° SSW 18:49:39 10° SSE visible
03 Oct 10.9 19:43:31 10° SSW 19:45:24 10° SSW 19:47:11 10° S visible
04 Oct 11.1 18:19:23 10° SW 18:29:22 16° SSW 18:37:47 10° SSE visible
05 Oct 10.9 19:30:32 10° SSW 19:34:17 11° S 19:37:42 10° S visible
06 Oct 11.1 18:08:22 10° SW 18:17:56 15° SSW 18:26:10 10° SSE visible
06 Oct 10.6 20:35:20 10° SSW 20:38:50 11° S 20:40:44 11° SSE visible
07 Oct 10.8 19:17:25 10° SSW 19:23:12 12° S 19:28:11 10° SSE visible
07 Oct 10.7 21:35:29 10° SSW 21:37:33 13° SSW 21:37:33 13° SSW visible
08 Oct 11.1 17:57:06 10° SW 18:06:37 15° S 18:14:53 10° SSE visible
08 Oct 10.5 20:20:49 10° SSW 20:27:42 15° S 20:29:38 14° SSE visible
09 Oct 10.8 19:04:14 10° SSW 19:12:04 14° S 19:18:33 10° SSE visible
09 Oct 10.5 21:21:43 10° SSW 21:26:27 18° S 21:26:27 18° S visible
